Weather History for KLUK - May, 2014

Change the Weather History Date:

Monday, May 26, 2014

  Actual Average Record
Temperature  
Mean Temperature 68 °F -  
Max Temperature 86 °F 76 °F 91 °F (1965)
Min Temperature 53 °F 55 °F 43 °F (1983)
Cooling Degree Days 4    
Growing Degree Days 18 (Base 50)    
Moisture  
Dew Point 58 °F    
Average Humidity 81    
Maximum Humidity 100    
Minimum Humidity 51    
Precipitation  
Precipitation 0.00 in - - ()
Sea Level Pressure  
Sea Level Pressure 30.10 in    
Wind  
Wind Speed 1 mph (SSW)    
Max Wind Speed 10 mph    
Max Gust Speed -    
Visibility 7 miles    
Events Fog    
Averages and records for this station are not official NWS values.
T = Trace of Precipitation, MM = Missing Value Source: NWS Daily Summary

Daily Weather History Graph

Daily Weather History Graph

Search for Another Location

Airport or City:

Trip Planner

Search our weather history database for the weather conditions in past years. The results will help you decide how hot, cold, wet, or windy it might be!

Date:

Astronomy

May. 26, 2014 Rise Set
Actual Time 6:16 AM EDT 8:53 PM EDT
Civil Twilight 5:45 AM EDT 9:24 PM EDT
Nautical Twilight 5:06 AM EDT 10:03 PM EDT
Astronomical Twilight 4:23 AM EDT 10:46 PM EDT
Moon 4:56 AM EDT (5/26) 6:56 PM EDT (5/26)
Length of Visible Light 15h 39m
Length of Day
14h 36m
Waning Crescent, 5% of the Moon is Illuminated
May 26
Waning Crescent
May 28
New
Jun 5
First Quarter
Jun 13
Full
Jun 19
Last Quarter

Hourly Weather History & Observations

Time (EDT) Temp. Heat Index Dew Point Humidity Pressure Visibility Wind Dir Wind Speed Gust Speed Precip Events Conditions
12:53 AM 57.9 °F - 55.0 °F 90% 30.12 in 10.0 mi Calm Calm - N/A   Clear
1:53 AM 55.9 °F - 54.0 °F 93% 30.12 in 9.0 mi Calm Calm - N/A   Clear
2:53 AM 55.0 °F - 54.0 °F 96% 30.12 in 7.0 mi Calm Calm - N/A   Clear
3:53 AM 55.0 °F - 54.0 °F 96% 30.12 in 7.0 mi Calm Calm - N/A   Clear
4:11 AM 53.6 °F - 51.8 °F 94% 30.13 in 1.5 mi Calm Calm - N/A   Clear
4:19 AM 53.1 °F - 52.0 °F 96% 30.13 in 0.5 mi Calm Calm - N/A Fog Fog
4:27 AM 54.0 °F - 53.1 °F 97% 30.13 in 2.0 mi Calm Calm - N/A   Clear
4:34 AM 54.0 °F - 53.1 °F 97% 30.13 in 5.0 mi Calm Calm - N/A   Clear
4:53 AM 53.1 °F - 52.0 °F 96% 30.12 in 3.0 mi Calm Calm - N/A   Clear
5:28 AM 54.0 °F - 53.1 °F 97% 30.13 in 1.8 mi Calm Calm - N/A   Clear
5:39 AM 53.1 °F - 52.0 °F 96% 30.13 in 3.0 mi Calm Calm - N/A   Clear
5:46 AM 53.1 °F - 52.0 °F 96% 30.13 in 1.8 mi Calm Calm - N/A   Clear
5:53 AM 53.1 °F - 53.1 °F 100% 30.13 in 0.8 mi Calm Calm - N/A   Partly Cloudy
5:59 AM 53.1 °F - 53.1 °F 100% 30.14 in 2.0 mi Calm Calm - N/A   Partly Cloudy
6:15 AM 53.1 °F - 52.0 °F 96% 30.14 in 0.8 mi Calm Calm - N/A   Scattered Clouds
6:29 AM 53.1 °F - 52.0 °F 96% 30.14 in 2.5 mi Calm Calm - N/A   Scattered Clouds
6:37 AM 54.0 °F - 53.1 °F 97% 30.15 in 3.0 mi Calm Calm - N/A   Mostly Cloudy
6:53 AM 55.0 °F - 54.0 °F 96% 30.15 in 8.0 mi Calm Calm - N/A   Scattered Clouds
7:53 AM 57.9 °F - 55.9 °F 93% 30.16 in 8.0 mi Calm Calm - N/A   Scattered Clouds
8:53 AM 63.0 °F - 57.9 °F 84% 30.15 in 9.0 mi Calm Calm - N/A   Clear
9:53 AM 69.1 °F - 60.1 °F 73% 30.15 in 10.0 mi Calm Calm - N/A   Clear
10:53 AM 75.9 °F - 59.0 °F 56% 30.14 in 10.0 mi Variable 3.5 mph - N/A   Clear
11:53 AM 79.0 °F - 61.0 °F 54% 30.12 in 10.0 mi Calm Calm - N/A   Clear
12:53 PM 81.0 °F 81.9 °F 62.1 °F 52% 30.10 in 10.0 mi Calm Calm - N/A   Scattered Clouds
1:53 PM 82.9 °F 84.6 °F 64.9 °F 54% 30.09 in 10.0 mi SSW 8.1 mph - N/A   Mostly Cloudy
2:53 PM 84.0 °F 85.8 °F 64.9 °F 53% 30.06 in 10.0 mi SW 8.1 mph - N/A   Mostly Cloudy
3:53 PM 84.9 °F 86.6 °F 64.9 °F 51% 30.04 in 10.0 mi SSW 8.1 mph - N/A   Partly Cloudy
4:53 PM 84.0 °F 85.8 °F 64.9 °F 53% 30.02 in 10.0 mi SSW 9.2 mph - N/A   Scattered Clouds
5:53 PM 84.9 °F 86.6 °F 64.9 °F 51% 30.01 in 10.0 mi SSW 10.4 mph - N/A   Partly Cloudy
6:53 PM 82.0 °F 83.8 °F 64.9 °F 56% 30.00 in 10.0 mi SSW 6.9 mph - N/A   Partly Cloudy
7:53 PM 78.1 °F - 64.9 °F 64% 29.99 in 10.0 mi SSW 8.1 mph - N/A   Clear
8:53 PM 75.0 °F - 64.9 °F 71% 30.01 in 10.0 mi SSW 4.6 mph - N/A   Clear
9:53 PM 70.0 °F - 64.9 °F 84% 30.02 in 10.0 mi SSW 6.9 mph - N/A   Partly Cloudy
10:53 PM 73.0 °F - 66.9 °F 81% 30.03 in 10.0 mi SSW 8.1 mph - N/A   Partly Cloudy
11:53 PM 72.0 °F - 66.9 °F 84% 30.03 in 10.0 mi SW 6.9 mph - N/A   Clear